Terminal Aerodrome Forecast
Issued by NWS

Home | Current Version | Previous Version | Text Only | Print | Product List | Glossary On
Versions: 1 2 3 4 5 6 7 8 9 10 11 12 13 14 15 16 17 18 19 20 21 22
000
FTUS41 KGYX 182326
TAFHIE
TAF
KHIE 182326Z 1900/1924 06004KT P6SM FEW035 BKN100 BKN120
     FM190200 00000KT 4SM BR OVC015
     FM190800 00000KT 1/2SM FG OVC001
     FM191200 00000KT 3SM BR OVC007
     FM191800 26005KT P6SM BKN050=

USA.gov is the U.S. government's official web portal to all federal, state and local government web resources and services.